Miscellaneous Local Product
Issued by NWS North Platte, NE

Home | Current Version | Previous Version | Text Only | Print | Product List | Glossary On
Versions: 1 2 3 4 5 6 7 8 9 10 11 12 13 14 15 16 17 18 19 20 21 22 23 24 25 26 27 28 29 30 31 32 33 34 35 36 37 38 39 40 41 42 43 44 45 46 47 48 49 50
000
AXUS43 KLBF 292010
MISLBF


WESTERN AND NORTH CENTRAL NEBRASKA HOURLY WEATHER ROUNDUP
NATIONAL WEATHER SERVICE NORTH PLATTE NE
200 PM CST THU JAN 29 2015

***STATIONS NOT REPORTING VARIABLES SUCH AS SKY/WEATHER OR
PRESSURE ARE PROVIDED BY THE NEBRASKA DEPARTMENT OF
ROADS...RAWS...AND APRS NETWORKS...AND ARE NOT UNDER
NATIONAL WEATHER SERVICE QUALITY CONTROL***

...OBSERVATIONS IN AND NEAR THE EASTERN PANHANDLE OF NEBRASKA...

CITY           SKY/WX    TMP DP  RH WIND       PRES   REMARKS
PINE RIDGE     SUNNY     42  12  29 NW5       30.45F
CHADRON        SUNNY     43  16  33 CALM      30.44F
ALLIANCE       SUNNY     42  15  33 NW7       30.44F
SIDNEY         SUNNY     45  10  24 N9        30.45F
WHITECLAY        N/A     39  10  29 W5          N/A
CRESCENT LAKE    N/A     42  17  36 N9G17       N/A
LISCO            N/A     45   3  17 W9          N/A
LEWELLEN         N/A     44  14  29 NW3         N/A
$$

...OBSERVATIONS IN NORTH CENTRAL NEBRASKA...

CITY           SKY/WX    TMP DP  RH WIND       PRES   REMARKS
VALENTINE      SUNNY     43  21  41 NW10      30.44F
THEDFORD       SUNNY     43  21  41 N13G18    30.44F
AINSWORTH      SUNNY     41  22  47 N14       30.44S
O`NEILL        SUNNY     43  27  53 NW20      30.43S
ORD            SUNNY     44  21  40 N15       30.42F
BROKEN BOW     SUNNY     45  23  42 N16G24    30.44F
BROWNLEE         N/A     43  21  41 NW14        N/A
VALENTINE NWR    N/A     41  21  45 NW13G20     N/A
SPRINGVIEW       N/A     41  23  49 NW10G17     N/A
HALSEY           N/A     43  21  41 NW9G16      N/A
BREWSTER         N/A     43  21  40 NW17        N/A
ROSE             N/A     44  26  48 SW10        N/A
NEWPORT          N/A     41  23  49 NW17        N/A
SARGENT          N/A     43  24  47 N6G14       N/A
COMSTOCK         N/A     45  22  40 W17         N/A
CHAMBERS         N/A     42  23  46 N12         N/A
EWING            N/A     41  30  64 N12G18      N/A
$$

...OBSERVATIONS IN SOUTHWEST NEBRASKA AND FAR NORTHEAST COLORADO...

CITY           SKY/WX    TMP DP  RH WIND       PRES   REMARKS
WRAY           FAIR      48  15  27 N13       30.47F
HOLYOKE        FAIR      48  14  25 N7        30.47F
IMPERIAL       SUNNY     44  22  41 N13       30.47F
OGALLALA       SUNNY     43  21  42 N10       30.46F
NORTH PLATTE   SUNNY     44  21  40 NW12      30.46F
MCCOOK         SUNNY     45  22  40 N13G22    30.47F
LEXINGTON      SUNNY     45  24  43 N13       30.45F
BRADY            N/A     43  24  47 CALM        N/A
GOTHENBURG       N/A     42  21  42 NW12        N/A
CALLAWAY         N/A     42  25  50 N9          N/A
$$

...NORTH PLATTE AREA...

CITY           SKY/WX    TMP DP  RH WIND       PRES   REMARKS
AIRPORT        SUNNY     44  21  40 NW12      30.46F
DOWNTOWN         N/A     42  22  44 N7          N/A
$$

...SOME WEATHER OBSERVATIONS FROM AROUND THE REGION...

CITY           SKY/WX    TMP DP  RH WIND       PRES   REMARKS
DENVER         PTSUNNY   45  23  42 VRB6      30.44F
LARAMIE        SUNNY     38  25  59 S8        30.39F WCI  32
CHEYENNE       PTSUNNY   41  24  51 S13       30.42F
SCOTTSBLUFF    SUNNY     46  21  37 CALM      30.44F
RAPID CITY     SUNNY     45  12  26 N9        30.42F
PIERRE         SUNNY     38  23  55 NW12G22   30.45F WCI  30
WINNER         FAIR      42  23  46 N16       30.45F
SIOUX FALLS    CLOUDY    31  21  66 NW21G28   30.41S WCI  18
OMAHA          CLOUDY    38  25  59 N24G30    30.40R WCI  27
GRAND ISLAND   SUNNY     45  25  45 NW18      30.44F
KANSAS CITY    CLOUDY    41  27  57 N22       30.36R
WICHITA        PTSUNNY   50  26  39 N18G28    30.43F
HAYS           SUNNY     46  21  36 N14G22    30.47F
LIBERAL        PTSUNNY   48  27  43 NW14G20   30.50F
GOODLAND       SUNNY     45  22  40 N17       30.47F
$$



USA.gov is the U.S. government's official web portal to all federal, state and local government web resources and services.